カタログに戻る

N2-P-BODY

運用中科学SSO
NORAD 69929·PAYLOAD·🇺🇸 United States

打ち上げ Jul 7, 2026 から Vandenberg Space Force Base

Loading…

次のパス (今後24時間)

TLE

最新Source: Space-Track

元期: Sep 14, 2026, 12:44 UTC

1 69929U 26156BN  26257.53069681  .00004227  00000-0  41481-3 0  9991
2 69929  97.7463 156.9153 0007341 294.7972  65.2483 14.92712395 10325

AllMySatでN2-P-BODYをリアルタイム追跡

Download on the App Store